DW0830 Weather Reports


Display with metric or nautical units.
time (UTC)temp
F
wind
direction
speed
MPH
gust
MPH
rain 1hr
in
rain 24hr
in
rain mn
in
humidity
%
barometer
mb
20260905231305 68 270 3.0 4.0 0.00 0.00 0.00 58 1018.7
20260905230254 67 270 4.0 4.0 0.00 0.00 0.00 60 1018.5
20260905225356 66 315 2.0 2.0 0.00 0.00 0.00 61 1018.5
20260905224344 65 270 1.0 2.0 0.00 0.00 0.00 62 1018.4
20260905223333 65 315 1.0 2.0 0.00 0.00 0.00 64 1018.5
20260905222311 64 315 2.0 3.0 0.00 0.00 0.00 68 1018.6
20260905221307 63 270 1.0 2.0 0.00 0.00 0.00 72 1018.6
20260905220314 63 0.0 0.0 0.00 0.00 0.00 71 1018.5
20260905215248 63 0.0 0.0 0.00 0.00 0.00 71 1018.2
20260905214242 63 0.0 0.0 0.00 0.00 0.00 70 1018.2
20260905213230 64 0.0 0.0 0.00 0.00 0.00 66 1017.9
20260905212219 64 135 1.0 2.0 0.00 0.00 0.00 67 1018.0
20260905211306 64 0.0 0.0 0.00 0.00 0.00 65 1018.0
20260905210314 64 0.0 0.0 0.00 0.00 0.00 64 1017.6
20260905205343 65 0.0 0.0 0.00 0.00 0.00 64 1017.9
20260905204332 65 0.0 0.0 0.00 0.00 0.00 62 1018.0
20260905203321 66 0.0 0.0 0.00 0.00 0.00 62 1017.9
20260905202310 66 0.0 0.0 0.00 0.00 0.00 61 1017.8
20260905201305 66 315 2.0 2.0 0.00 0.00 0.00 61 1017.7
20260905200259 68 0.0 1.0 0.00 0.00 0.00 60 1017.6
20260905195300 68 315 2.0 3.0 0.00 0.00 0.00 59 1017.6
20260905194247 68 315 2.0 2.0 0.00 0.00 0.00 58 1017.3
20260905193231 69 0 2.0 2.0 0.00 0.00 0.00 58 1017.2
20260905192219 69 0 2.0 2.0 0.00 0.00 0.00 57 1017.2
20260905191208 69 0 2.0 2.0 0.00 0.00 0.00 56 1017.1
20260905190258 69 0 2.0 4.0 0.00 0.00 0.00 56 1017.1
20260905185403 69 0 2.0 4.0 0.00 0.00 0.00 55 1016.8
20260905184332 70 315 2.0 3.0 0.00 0.00 0.00 54 1016.8
20260905183310 70 315 2.0 3.0 0.00 0.00 0.00 54 1016.9
20260905182306 70 0 2.0 3.0 0.00 0.00 0.00 53 1016.6
20260905181356 70 315 2.0 4.0 0.00 0.00 0.00 53 1016.5
20260905180347 71 315 2.0 4.0 0.00 0.00 0.00 52 1016.7
20260905175343 71 315 2.0 3.0 0.00 0.00 0.00 51 1016.3
20260905174357 72 270 2.0 3.0 0.00 0.00 0.00 50 1016.0
20260905173320 73 315 3.0 4.0 0.00 0.00 0.00 46 1016.0
20260905172309 73 45 3.0 4.0 0.00 0.00 0.00 45 1015.8
20260905171305 74 338 3.0 4.0 0.00 0.00 0.00 44 1015.8
20260905170314 75 293 8.0 9.0 0.00 0.00 0.00 43 1015.8
20260905165401 76 225 4.0 6.0 0.00 0.00 0.00 42 1015.8
20260905164406 76 315 4.0 7.0 0.00 0.00 0.00 42 1015.5
20260905163340 76 270 6.0 10.0 0.00 0.00 0.00 41 1015.6
20260905162334 76 270 8.0 11.0 0.00 0.00 0.00 42 1015.5
20260905161307 76 315 8.0 9.0 0.00 0.00 0.00 41 1015.6
20260905160253 76 270 10.0 12.0 0.00 0.00 0.00 42 1015.5
20260905155345 76 270 12.0 15.0 0.00 0.00 0.00 41 1015.4
20260905154332 76 270 8.0 11.0 0.00 0.00 0.00 41 1015.5
20260905153321 76 248 9.0 11.0 0.00 0.00 0.00 42 1015.5
20260905152330 76 293 11.0 14.0 0.00 0.00 0.00 41 1015.4
20260905151325 76 270 10.0 11.0 0.00 0.00 0.00 40 1015.3
20260905150254 77 315 7.0 9.0 0.00 0.00 0.00 37 1015.5
20260905145247 77 315 11.0 13.0 0.00 0.00 0.00 36 1015.5
20260905144241 76 270 8.0 9.0 0.00 0.00 0.00 39 1015.6
20260905143230 76 0 5.0 7.0 0.00 0.00 0.00 38 1015.3
20260905142218 78 0 9.0 11.0 0.00 0.00 0.00 37 1015.6
20260905141305 78 135 6.0 8.0 0.00 0.00 0.00 35 1015.8
20260905140313 79 0 9.0 13.0 0.00 0.00 0.00 34 1015.4
20260905135444 78 0 9.0 12.0 0.00 0.00 0.00 34 1015.5
20260905134331 79 315 11.0 15.0 0.00 0.00 0.00 33 1015.4
20260905133321 80 315 11.0 15.0 0.00 0.00 0.00 32 1015.1
20260905132310 80 315 12.0 16.0 0.00 0.00 0.00 34 1015.4
20260905131305 80 0 8.0 11.0 0.00 0.00 0.00 35 1015.1
20260905130253 79 315 8.0 10.0 0.00 0.00 0.00 34 1015.3
20260905125249 79 270 8.0 11.0 0.00 0.00 0.00 35 1015.3
20260905124234 77 270 4.0 5.0 0.00 0.00 0.00 36 1015.3
20260905123222 79 270 8.0 10.0 0.00 0.00 0.00 34 1015.5
20260905122212 78 270 8.0 12.0 0.00 0.00 0.00 35 1015.6
20260905121208 79 293 6.0 8.0 0.00 0.00 0.00 38 1015.4
20260905120314 77 315 7.0 8.0 0.00 0.00 0.00 42 1015.6
20260905115345 75 270 5.0 7.0 0.00 0.00 0.00 46 1015.6
20260905114331 72 0 4.0 7.0 0.00 0.00 0.00 52 1016.0
20260905113321 71 0 6.0 7.0 0.00 0.00 0.00 56 1015.8
20260905112310 70 315 3.0 4.0 0.00 0.00 0.00 62 1015.8
20260905111305 69 0 2.0 3.0 0.00 0.00 0.00 65 1015.7
20260905110253 71 338 3.0 4.0 0.00 0.00 0.00 55 1015.9
20260905105255 72 270 4.0 5.0 0.00 0.00 0.00 50 1015.6
20260905104243 73 0 4.0 6.0 0.00 0.00 0.00 44 1015.3
20260905103230 74 286 5.0 9.0 0.00 0.00 0.00 41 1015.4
20260905102211 75 315 8.0 11.0 0.00 0.00 0.00 40 1015.6
20260905101201 76 315 6.0 8.0 0.00 0.00 0.00 40 1015.5
20260905100254 76 315 6.0 8.0 0.00 0.00 0.00 39 1015.6
20260905095343 77 315 8.0 9.0 0.00 0.00 0.00 38 1015.6
20260905094333 78 315 7.0 8.0 0.00 0.00 0.00 38 1015.8
20260905093341 77 315 6.0 8.0 0.00 0.00 0.00 40 1015.6
20260905092309 76 293 8.0 10.0 0.00 0.00 0.00 41 1015.7
20260905091305 76 315 5.0 8.0 0.00 0.00 0.00 42 1015.8
20260905090253 78 338 5.0 11.0 0.00 0.00 0.00 42 1015.9
20260905085347 78 0 2.0 3.0 0.00 0.00 0.00 43 1015.5
20260905084357 79 0 11.0 17.0 0.00 0.00 0.00 43 1015.3
20260905083343 78 315 7.0 9.0 0.00 0.00 0.00 50 1015.1
20260905082311 76 315 11.0 15.0 0.00 0.00 0.00 52 1015.4
20260905081326 76 315 10.0 16.0 0.00 0.00 0.00 52 1014.9
20260905080254 77 315 7.0 12.0 0.00 0.00 0.00 52 1014.8
20260905075346 76 0 8.0 14.0 0.00 0.00 0.00 52 1014.2
20260905074334 76 315 8.0 10.0 0.00 0.00 0.00 53 1013.7
20260905073322 76 315 5.0 8.0 0.00 0.00 0.00 53 1014.0
20260905072332 76 0 11.0 15.0 0.00 0.00 0.00 52 1012.9
20260905071311 77 315 11.0 15.0 0.00 0.00 0.00 51 1013.2
20260905070258 78 315 11.0 16.0 0.00 0.00 0.00 50 1012.6
20260905065356 78 315 10.0 14.0 0.00 0.00 0.00 50 1012.4
20260905064345 77 270 4.0 6.0 0.00 0.00 0.00 51 1012.0
20260905063322 77 315 3.0 4.0 0.00 0.00 0.00 51 1011.7
20260905062311 74 315 1.0 2.0 0.00 0.00 0.00 53 1011.8
20260905061305 73 135 2.0 2.0 0.00 0.00 0.00 55 1011.5
20260905060334 72 135 2.0 3.0 0.00 0.00 0.00 60 1011.4
20260905055434 72 135 4.0 4.0 0.00 0.00 0.00 60 1011.1
20260905054333 71 135 4.0 5.0 0.00 0.00 0.00 61 1011.2
20260905053321 70 135 4.0 4.0 0.00 0.00 0.00 60 1011.0
20260905052311 70 135 6.0 7.0 0.00 0.00 0.00 61 1010.9
20260905051352 69 135 5.0 7.0 0.00 0.00 0.00 62 1010.8
20260905050341 69 135 4.0 5.0 0.00 0.00 0.00 63 1010.8
20260905045354 68 135 2.0 2.0 0.00 0.00 0.00 63 1010.7
20260905044402 67 135 2.0 3.0 0.00 0.00 0.00 64 1010.6
20260905043331 67 135 3.0 4.0 0.00 0.00 0.00 64 1010.5
20260905042320 67 135 3.0 4.0 0.00 0.00 0.00 62 1010.4
20260905041307 68 135 2.0 3.0 0.00 0.00 0.00 62 1010.2
20260905040253 68 0.0 1.0 0.00 0.00 0.00 61 1010.2
20260905035343 68 90 1.0 2.0 0.00 0.00 0.00 61 1010.0
20260905034332 68 113 1.0 2.0 0.00 0.00 0.00 61 1010.2
20260905033340 68 90 2.0 2.0 0.00 0.00 0.00 61 1010.2
20260905032314 69 0.0 0.0 0.00 0.00 0.00 59 1010.1
20260905031305 70 135 2.0 2.0 0.00 0.00 0.00 60 1010.0
20260905030255 69 45 2.0 3.0 0.00 0.00 0.00 60 1010.0
20260905025334 70 135 2.0 2.0 0.00 0.00 0.00 60 1010.1
20260905024320 70 45 1.0 2.0 0.00 0.00 0.00 59 1009.9
20260905023308 70 45 3.0 4.0 0.00 0.00 0.00 59 1010.1
20260905022400 70 135 4.0 5.0 0.00 0.00 0.00 59 1010.2
20260905021348 70 45 4.0 4.0 0.00 0.00 0.00 59 1010.0
20260905020342 70 90 5.0 6.0 0.00 0.00 0.00 59 1010.2
20260905015343 70 135 5.0 6.0 0.00 0.00 0.00 58 1010.0
20260905014332 71 135 5.0 6.0 0.00 0.00 0.00 57 1010.0
20260905013321 70 135 6.0 7.0 0.00 0.00 0.00 58 1010.1
20260905012310 71 135 6.0 7.0 0.00 0.00 0.00 57 1009.9
20260905011305 71 135 2.0 3.0 0.00 0.00 0.00 57 1009.8
20260905010314 71 135 6.0 7.0 0.00 0.00 0.00 56 1009.9
20260905005349 72 135 7.0 8.0 0.00 0.00 0.00 55 1009.9
20260905004334 72 135 5.0 6.0 0.00 0.00 0.00 55 1010.1
20260905003320 71 90 2.0 3.0 0.00 0.00 0.00 56 1009.9
20260905002350 71 135 2.0 3.0 0.00 0.00 0.00 55 1009.9
20260905001305 72 180 4.0 4.0 0.00 0.00 0.00 54 1009.9
20260905000255 73 180 8.0 8.0 0.00 0.00 0.00 51 1009.9
20260904235352 73 158 5.0 7.0 0.00 0.00 0.00 51 1010.2
20260904234339 73 180 5.0 7.0 0.00 0.00 0.00 51 1010.3
20260904233345 74 180 3.0 4.0 0.00 0.00 0.00 50 1010.4
20260904232313 74 135 2.0 2.0 0.00 0.00 0.00 49 1010.4